Location: Frankfurt am Main
(50.1109°N, 8.6821°E)
Time: 14:05:19
(UTC+01:00)

ISS - Pass Details

Date: 29 October 2021
Orbit: 417 x 422 km, 51.6° (Epoch: 07 December)

Event Time Altitude Azimuth Distance (km) Brightness Sun altitude
Exits shadow 04:52:45 11° 85° (E) 1,458 -0.2 -31.9°
Drops below altitude 10° 04:52:52 10° 84° (E) 1,501 -0.1 -31.9°
Sets 04:55:06 0° 73° (ENE) 2,367 1.2 -31.5°
